TimePDT,TemperatureF,Dew PointF,Humidity,Sea Level PressureIn,VisibilityMPH,Wind Direction,Wind SpeedMPH,Gust SpeedMPH,PrecipitationIn,Events,Conditions,WindDirDegrees,DateUTC
12:15 AM,55.4,33.8,44,-9999,10.0,NNW,12.7,-,N/A,,Clear,340,2013-08-03 07:15:00
12:35 AM,53.6,33.8,47,-9999,10.0,NNW,12.7,-,N/A,,Clear,340,2013-08-03 07:35:00
12:55 AM,55.4,33.8,44,-9999,10.0,NNW,11.5,-,N/A,,Clear,340,2013-08-03 07:55:00
1:15 AM,53.6,33.8,47,-9999,10.0,North,11.5,-,N/A,,Clear,350,2013-08-03 08:15:00
1:35 AM,53.6,33.8,47,-9999,10.0,North,11.5,-,N/A,,Clear,350,2013-08-03 08:35:00
1:55 AM,53.6,33.8,47,-9999,10.0,North,12.7,-,N/A,,Clear,350,2013-08-03 08:55:00
2:15 AM,53.6,33.8,47,-9999,10.0,North,13.8,-,N/A,,Clear,350,2013-08-03 09:15:00
2:35 AM,55.4,33.8,44,-9999,10.0,North,18.4,21.9,N/A,,Clear,350,2013-08-03 09:35:00
2:55 AM,55.4,33.8,44,30.14,10.0,North,13.8,-,N/A,,Clear,350,2013-08-03 09:55:00
3:15 AM,55.4,35.6,47,30.14,10.0,NNW,13.8,20.7,N/A,,Clear,340,2013-08-03 10:15:00
3:35 AM,55.4,35.6,47,30.14,10.0,North,13.8,-,N/A,,Clear,350,2013-08-03 10:35:00
3:55 AM,55.4,35.6,47,30.14,10.0,NNW,13.8,19.6,N/A,,Clear,340,2013-08-03 10:55:00
4:15 AM,51.8,35.6,54,30.14,10.0,NNW,12.7,-,N/A,,Clear,330,2013-08-03 11:15:00
4:35 AM,50.0,35.6,58,30.14,10.0,NNW,12.7,-,N/A,,Clear,340,2013-08-03 11:35:00
4:55 AM,50.0,35.6,58,30.13,10.0,NNW,13.8,-,N/A,,Clear,330,2013-08-03 11:55:00
5:15 AM,48.2,35.6,62,30.13,10.0,NNW,12.7,-,N/A,,Clear,330,2013-08-03 12:15:00
5:35 AM,50.0,35.6,58,30.14,10.0,NNW,12.7,-,N/A,,Clear,330,2013-08-03 12:35:00
5:55 AM,51.8,35.6,54,30.14,10.0,NNW,13.8,-,N/A,,Clear,340,2013-08-03 12:55:00
6:15 AM,51.8,35.6,54,30.14,10.0,NNW,13.8,-,N/A,,Clear,340,2013-08-03 13:15:00
6:35 AM,53.6,37.4,54,30.15,10.0,NNW,11.5,-,N/A,,Clear,340,2013-08-03 13:35:00
6:55 AM,53.6,37.4,54,30.15,10.0,NNW,11.5,-,N/A,,Clear,340,2013-08-03 13:55:00
7:15 AM,53.6,37.4,54,30.15,10.0,NNW,12.7,-,N/A,,Clear,340,2013-08-03 14:15:00
7:35 AM,57.2,37.4,48,30.16,10.0,NNW,15.0,19.6,N/A,,Clear,340,2013-08-03 14:35:00
7:55 AM,60.8,37.4,42,-9999,10.0,North,15.0,20.7,N/A,,Clear,350,2013-08-03 14:55:00
8:15 AM,60.8,37.4,42,-9999,10.0,NNW,17.3,21.9,N/A,,Clear,340,2013-08-03 15:15:00
8:35 AM,62.6,37.4,39,-9999,10.0,North,16.1,20.7,N/A,,Clear,350,2013-08-03 15:35:00
8:55 AM,64.4,39.2,40,-9999,10.0,NNW,17.3,-,N/A,,Clear,340,2013-08-03 15:55:00
9:15 AM,66.2,37.4,35,-9999,10.0,NNW,12.7,19.6,N/A,,Clear,340,2013-08-03 16:15:00
9:35 AM,68.0,39.2,35,-9999,10.0,NNW,15.0,18.4,N/A,,Clear,340,2013-08-03 16:35:00
9:55 AM,69.8,39.2,33,-9999,10.0,NNW,13.8,-,N/A,,Clear,340,2013-08-03 16:55:00
10:15 AM,71.6,37.4,29,-9999,10.0,NNW,11.5,-,N/A,,Clear,340,2013-08-03 17:15:00
10:35 AM,73.4,37.4,27,30.15,10.0,NNW,13.8,17.3,N/A,,Clear,330,2013-08-03 17:35:00
10:55 AM,75.2,37.4,25,30.14,10.0,NW,11.5,-,N/A,,Clear,320,2013-08-03 17:55:00
11:15 AM,75.2,37.4,25,30.14,10.0,NW,8.1,-,N/A,,Clear,320,2013-08-03 18:15:00
11:35 AM,77.0,35.6,22,30.13,10.0,NNW,9.2,-,N/A,,Clear,330,2013-08-03 18:35:00
11:55 AM,77.0,32.0,19,-9999,10.0,SSE,9.2,-,N/A,,Clear,150,2013-08-03 18:55:00
12:15 PM,77.0,30.2,18,-9999,10.0,East,6.9,-,N/A,,Clear,100,2013-08-03 19:15:00
12:35 PM,77.0,28.4,17,-9999,10.0,North,5.8,-,N/A,,Clear,350,2013-08-03 19:35:00
12:55 PM,78.8,28.4,16,30.12,10.0,West,4.6,-,N/A,,Clear,260,2013-08-03 19:55:00
1:15 PM,77.0,30.2,18,30.12,10.0,Calm,Calm,-,N/A,,Clear,0,2013-08-03 20:15:00
1:35 PM,78.8,28.4,16,30.12,10.0,WNW,3.5,-,N/A,,Clear,300,2013-08-03 20:35:00
1:55 PM,80.6,30.2,16,30.11,10.0,West,5.8,-,N/A,,Clear,270,2013-08-03 20:55:00
2:15 PM,82.4,30.2,15,30.11,10.0,West,8.1,17.3,N/A,,Clear,280,2013-08-03 21:15:00
2:35 PM,80.6,30.2,16,30.11,10.0,NW,3.5,-,N/A,,Clear,310,2013-08-03 21:35:00
2:55 PM,82.4,30.2,15,30.10,10.0,WNW,6.9,-,N/A,,Clear,290,2013-08-03 21:55:00
3:15 PM,82.4,28.4,14,30.09,10.0,WNW,9.2,-,N/A,,Clear,300,2013-08-03 22:15:00
3:35 PM,80.6,28.4,15,30.09,10.0,NW,8.1,-,N/A,,Clear,310,2013-08-03 22:35:00
3:55 PM,80.6,28.4,15,30.09,10.0,NNW,4.6,-,N/A,,Clear,330,2013-08-03 22:55:00
4:15 PM,82.4,28.4,14,30.09,10.0,NW,5.8,-,N/A,,Clear,320,2013-08-03 23:15:00
4:35 PM,82.4,28.4,14,30.08,10.0,WNW,6.9,-,N/A,,Clear,300,2013-08-03 23:35:00
4:55 PM,80.6,28.4,15,30.08,10.0,WNW,6.9,-,N/A,,Clear,300,2013-08-03 23:55:00
5:15 PM,80.6,28.4,15,30.08,10.0,NNW,3.5,-,N/A,,Clear,330,2013-08-04 00:15:00
5:35 PM,80.6,26.6,14,30.07,10.0,NW,6.9,-,N/A,,Clear,320,2013-08-04 00:35:00
5:55 PM,80.6,28.4,15,30.07,10.0,NW,4.6,-,N/A,,Clear,320,2013-08-04 00:55:00
6:15 PM,80.6,26.6,14,30.07,10.0,NW,4.6,-,N/A,,Clear,310,2013-08-04 01:15:00
6:35 PM,80.6,26.6,14,30.07,10.0,WNW,5.8,-,N/A,,Clear,300,2013-08-04 01:35:00
6:55 PM,80.6,26.6,14,30.07,10.0,West,5.8,-,N/A,,Clear,280,2013-08-04 01:55:00
7:15 PM,80.6,26.6,14,30.07,10.0,NNW,5.8,-,N/A,,Clear,330,2013-08-04 02:15:00
7:35 PM,75.2,32.0,21,30.06,10.0,North,5.8,-,N/A,,Clear,10,2013-08-04 02:35:00
7:55 PM,73.4,35.6,25,30.06,10.0,North,4.6,-,N/A,,Clear,350,2013-08-04 02:55:00
8:15 PM,73.4,30.2,20,30.06,10.0,NNW,4.6,-,N/A,,Clear,340,2013-08-04 03:15:00
8:35 PM,66.2,35.6,32,30.07,10.0,NNE,3.5,-,N/A,,Clear,20,2013-08-04 03:35:00
8:55 PM,64.4,33.8,32,30.07,10.0,North,8.1,-,N/A,,Clear,350,2013-08-04 03:55:00
9:15 PM,60.8,33.8,36,30.08,10.0,NNW,9.2,-,N/A,,Clear,340,2013-08-04 04:15:00
9:35 PM,59.0,33.8,39,30.09,10.0,NNW,4.6,-,N/A,,Clear,330,2013-08-04 04:35:00
9:55 PM,57.2,32.0,38,30.10,10.0,WNW,5.8,-,N/A,,Clear,290,2013-08-04 04:55:00
10:15 PM,55.4,32.0,41,-9999,10.0,NNE,4.6,-,N/A,,Clear,20,2013-08-04 05:15:00
10:35 PM,55.4,32.0,41,-9999,10.0,North,5.8,-,N/A,,Clear,360,2013-08-04 05:35:00
10:55 PM,53.6,30.2,41,-9999,10.0,Calm,Calm,-,N/A,,Clear,0,2013-08-04 05:55:00
11:15 PM,53.6,28.4,38,30.11,10.0,North,5.8,-,N/A,,Clear,360,2013-08-04 06:15:00
11:35 PM,51.8,28.4,41,-9999,10.0,NW,4.6,-,N/A,,Clear,310,2013-08-04 06:35:00
11:55 PM,50.0,30.2,47,-9999,10.0,NW,6.9,-,N/A,,Clear,320,2013-08-04 06:55:00